Zurück zum Katalog

TITAN 34D TRANSTAGE DEB

AktivGTO
NORAD 23039·DEBRIS·🇺🇸 United States

Gestartet Sep 2, 1988 von Cape Canaveral Space Force Station

Loading…

TLE

VeraltetSource: Space-Track

Epoche: Sep 13, 2026, 10:13 UTC

1 23039U 88077J   26256.42597692  .00000192  00000-0  48259-3 0  9995
2 23039  26.6136  92.4920 7380897 311.4285   5.3818  2.03927156 53014

Verfolge TITAN 34D TRANSTAGE DEB in Echtzeit mit AllMySat

Download on the App Store